Time,TemperatureF,DewpointF,PressureIn,WindDirection,WindDirectionDegrees,WindSpeedMPH,WindSpeedGustMPH,Humidity,HourlyPrecipIn,Conditions,Clouds,dailyrainin,SolarRadiationWatts/m^2,SoftwareType,DateUTC
2015-03-26 00:02:00,37.9,28.3,29.88,WNW,294,6.0,6.0,68,0.00,,,0.00,0,Wunderground v.1.15,2015-03-26 05:02:00,
2015-03-26 00:12:00,37.9,28.3,29.87,WNW,289,6.0,10.0,68,0.00,,,0.00,0,Wunderground v.1.15,2015-03-26 05:12:00,
2015-03-26 00:22:00,37.8,27.8,29.87,West,278,7.0,7.0,67,0.00,,,0.00,0,Wunderground v.1.15,2015-03-26 05:22:00,
2015-03-26 00:32:00,37.8,27.5,29.87,NW,319,7.0,7.0,66,0.00,,,0.00,0,Wunderground v.1.15,2015-03-26 05:32:00,
2015-03-26 00:42:00,37.8,27.5,29.87,WNW,291,7.0,7.0,66,0.00,,,0.00,0,Wunderground v.1.15,2015-03-26 05:42:00,
2015-03-26 00:52:00,37.8,27.1,29.87,WNW,295,7.0,11.0,65,0.00,,,0.00,0,Wunderground v.1.15,2015-03-26 05:52:00,
2015-03-26 01:02:00,37.8,26.3,29.87,WNW,291,9.0,9.0,63,0.00,,,0.00,0,Wunderground v.1.15,2015-03-26 06:02:00,
2015-03-26 01:12:00,37.8,26.3,29.87,NW,304,10.0,10.0,63,0.00,,,0.00,0,Wunderground v.1.15,2015-03-26 06:12:00,
2015-03-26 01:22:00,37.9,26.0,29.89,West,280,9.0,9.0,62,0.00,,,0.00,0,Wunderground v.1.15,2015-03-26 06:22:00,
2015-03-26 01:32:00,37.5,26.4,29.89,West,278,7.0,12.0,64,0.00,,,0.00,0,Wunderground v.1.15,2015-03-26 06:32:00,
2015-03-26 01:42:00,37.3,26.6,29.89,West,274,7.0,13.0,65,0.00,,,0.00,0,Wunderground v.1.15,2015-03-26 06:42:00,
2015-03-26 01:52:00,37.3,26.6,29.89,WNW,287,8.0,9.0,65,0.00,,,0.00,0,Wunderground v.1.15,2015-03-26 06:52:00,
2015-03-26 02:02:00,37.2,26.9,29.89,WNW,301,8.0,8.0,66,0.00,,,0.00,0,Wunderground v.1.15,2015-03-26 07:02:00,
2015-03-26 02:12:00,37.0,26.7,29.90,NNW,329,8.0,8.0,66,0.00,,,0.00,0,Wunderground v.1.15,2015-03-26 07:12:00,
2015-03-26 02:22:00,36.9,27.0,29.90,NNW,333,7.0,7.0,67,0.00,,,0.00,0,Wunderground v.1.15,2015-03-26 07:22:00,
2015-03-26 02:32:00,36.6,26.3,29.90,NW,325,7.0,7.0,66,0.00,,,0.00,0,Wunderground v.1.15,2015-03-26 07:32:00,
2015-03-26 02:42:00,36.2,26.3,29.90,NNW,344,6.0,6.0,67,0.00,,,0.00,0,Wunderground v.1.15,2015-03-26 07:42:00,
2015-03-26 02:52:00,35.9,26.4,29.90,NNW,335,6.0,6.0,68,0.00,,,0.00,0,Wunderground v.1.15,2015-03-26 07:52:00,
2015-03-26 03:02:00,35.9,25.6,29.90,NW,312,5.0,5.0,66,0.00,,,0.00,0,Wunderground v.1.15,2015-03-26 08:02:00,
2015-03-26 03:12:00,36.0,25.4,29.89,NNW,335,5.0,6.0,65,0.00,,,0.00,0,Wunderground v.1.15,2015-03-26 08:12:00,
2015-03-26 03:22:00,36.0,25.4,29.89,NNW,347,6.0,7.0,65,0.00,,,0.00,0,Wunderground v.1.15,2015-03-26 08:22:00,
2015-03-26 03:32:00,36.0,25.4,29.89,NNW,332,7.0,7.0,65,0.00,,,0.00,0,Wunderground v.1.15,2015-03-26 08:32:00,
2015-03-26 03:42:00,35.9,25.6,29.88,NNW,328,6.0,6.0,66,0.00,,,0.00,0,Wunderground v.1.15,2015-03-26 08:42:00,
2015-03-26 03:52:00,35.8,25.5,29.88,West,271,7.0,9.0,66,0.00,,,0.00,0,Wunderground v.1.15,2015-03-26 08:52:00,
2015-03-26 04:02:00,35.8,25.2,29.88,NW,315,6.0,7.0,65,0.00,,,0.00,0,Wunderground v.1.15,2015-03-26 09:02:00,
2015-03-26 04:12:00,35.8,25.2,29.87,West,280,7.0,7.0,65,0.00,,,0.00,0,Wunderground v.1.15,2015-03-26 09:12:00,
2015-03-26 04:22:00,35.6,25.4,29.86,NW,309,7.0,8.0,66,0.00,,,0.00,0,Wunderground v.1.15,2015-03-26 09:22:00,
2015-03-26 04:32:00,35.5,25.6,29.86,WNW,298,6.0,6.0,67,0.00,,,0.00,0,Wunderground v.1.15,2015-03-26 09:32:00,
2015-03-26 04:42:00,35.3,25.4,29.86,NW,306,6.0,6.0,67,0.00,,,0.00,0,Wunderground v.1.15,2015-03-26 09:42:00,
2015-03-26 04:52:00,35.2,25.0,29.85,NW,312,7.0,7.0,66,0.00,,,0.00,0,Wunderground v.1.15,2015-03-26 09:52:00,
2015-03-26 05:02:00,35.2,25.0,29.85,NW,304,7.0,7.0,66,0.00,,,0.00,0,Wunderground v.1.15,2015-03-26 10:02:00,
2015-03-26 05:12:00,35.0,24.8,29.85,NW,315,6.0,7.0,66,0.00,,,0.00,0,Wunderground v.1.15,2015-03-26 10:12:00,
2015-03-26 05:22:00,35.0,25.1,29.85,NW,305,6.0,6.0,67,0.00,,,0.00,0,Wunderground v.1.15,2015-03-26 10:22:00,
2015-03-26 05:32:00,34.9,25.0,29.85,NW,320,6.0,6.0,67,0.00,,,0.00,0,Wunderground v.1.15,2015-03-26 10:32:00,
2015-03-26 05:42:00,34.9,25.0,29.85,WNW,299,6.0,6.0,67,0.00,,,0.00,0,Wunderground v.1.15,2015-03-26 10:42:00,
2015-03-26 05:52:00,34.9,25.4,29.84,West,277,6.0,12.0,68,0.00,,,0.00,0,Wunderground v.1.15,2015-03-26 10:52:00,
2015-03-26 06:02:00,34.7,25.2,29.84,WNW,302,6.0,11.0,68,0.00,,,0.00,0,Wunderground v.1.15,2015-03-26 11:02:00,
2015-03-26 06:12:00,34.7,25.2,29.84,WNW,299,6.0,6.0,68,0.00,,,0.00,0,Wunderground v.1.15,2015-03-26 11:12:00,
2015-03-26 06:22:00,34.7,25.6,29.85,NW,320,6.0,7.0,69,0.00,,,0.00,0,Wunderground v.1.15,2015-03-26 11:22:00,
2015-03-26 06:32:00,34.7,25.6,29.85,WNW,288,6.0,6.0,69,0.00,,,0.00,0,Wunderground v.1.15,2015-03-26 11:32:00,
2015-03-26 06:42:00,34.6,25.5,29.85,WNW,298,5.0,10.0,69,0.00,,,0.00,0,Wunderground v.1.15,2015-03-26 11:42:00,
2015-03-26 06:52:00,34.7,25.6,29.86,WNW,289,6.0,6.0,69,0.00,,,0.00,0,Wunderground v.1.15,2015-03-26 11:52:00,
2015-03-26 07:02:00,34.6,25.5,29.86,WNW,298,5.0,8.0,69,0.00,,,0.00,0,Wunderground v.1.15,2015-03-26 12:02:00,
2015-03-26 07:12:00,34.6,25.8,29.86,WNW,292,6.0,10.0,70,0.00,,,0.00,0,Wunderground v.1.15,2015-03-26 12:12:00,
2015-03-26 07:22:00,34.6,25.8,29.87,NW,306,5.0,5.0,70,0.00,,,0.00,5,Wunderground v.1.15,2015-03-26 12:22:00,
2015-03-26 07:32:00,34.6,25.5,29.87,NNW,330,6.0,6.0,69,0.00,,,0.00,9,Wunderground v.1.15,2015-03-26 12:32:00,
2015-03-26 07:42:00,34.6,24.4,29.87,WNW,295,7.0,10.0,66,0.00,,,0.00,14,Wunderground v.1.15,2015-03-26 12:42:00,
2015-03-26 07:52:00,34.7,23.4,29.87,NNW,342,7.0,7.0,63,0.00,,,0.00,16,Wunderground v.1.15,2015-03-26 12:52:00,
2015-03-26 08:02:00,34.7,24.1,29.87,NNW,342,7.0,7.0,65,0.00,,,0.00,18,Wunderground v.1.15,2015-03-26 13:02:00,
2015-03-26 08:12:00,34.6,24.4,29.88,NNW,333,5.0,7.0,66,0.00,,,0.00,23,Wunderground v.1.15,2015-03-26 13:12:00,
2015-03-26 08:22:00,34.3,24.5,29.89,NNW,342,7.0,7.0,67,0.00,,,0.00,30,Wunderground v.1.15,2015-03-26 13:22:00,
2015-03-26 08:32:00,34.1,24.3,29.89,NW,313,5.0,10.0,67,0.00,,,0.00,33,Wunderground v.1.15,2015-03-26 13:32:00,
2015-03-26 08:42:00,34.1,24.3,29.89,NNW,343,5.0,5.0,67,0.00,,,0.00,33,Wunderground v.1.15,2015-03-26 13:42:00,
2015-03-26 08:52:00,34.1,24.3,29.89,North,0,6.0,6.0,67,0.00,,,0.00,35,Wunderground v.1.15,2015-03-26 13:52:00,
2015-03-26 09:02:00,34.0,24.2,29.89,NNW,340,6.0,6.0,67,0.00,,,0.00,37,Wunderground v.1.15,2015-03-26 14:02:00,
2015-03-26 09:12:00,34.0,24.9,29.90,NW,322,6.0,6.0,69,0.00,,,0.00,39,Wunderground v.1.15,2015-03-26 14:12:00,
2015-03-26 09:22:00,33.7,25.0,29.90,NNW,337,7.0,7.0,70,0.00,,,0.00,55,Wunderground v.1.15,2015-03-26 14:22:00,
2015-03-26 09:32:00,33.5,24.4,29.90,NNW,343,8.0,8.0,69,0.00,,,0.00,95,Wunderground v.1.15,2015-03-26 14:32:00,
2015-03-26 09:42:00,33.5,24.4,29.90,North,0,7.0,7.0,69,0.00,,,0.00,91,Wunderground v.1.15,2015-03-26 14:42:00,
2015-03-26 09:52:00,33.5,24.4,29.90,NNW,342,7.0,9.0,69,0.00,,,0.00,134,Wunderground v.1.15,2015-03-26 14:52:00,
2015-03-26 10:02:00,33.4,23.3,29.90,NNW,333,9.0,19.0,66,0.00,,,0.00,213,Wunderground v.1.15,2015-03-26 15:02:00,
2015-03-26 10:12:00,33.8,22.9,29.91,NW,315,10.0,10.0,64,0.00,,,0.00,238,Wunderground v.1.15,2015-03-26 15:12:00,
2015-03-26 10:22:00,33.5,22.6,29.91,NW,323,10.0,10.0,64,0.00,,,0.00,185,Wunderground v.1.15,2015-03-26 15:22:00,
2015-03-26 10:32:00,33.5,22.6,29.91,NNW,328,8.0,8.0,64,0.00,,,0.00,202,Wunderground v.1.15,2015-03-26 15:32:00,
2015-03-26 10:42:00,33.7,22.4,29.92,North,0,7.0,7.0,63,0.00,,,0.00,238,Wunderground v.1.15,2015-03-26 15:42:00,
2015-03-26 10:52:00,34.3,23.0,29.92,NNW,330,6.0,6.0,63,0.00,,,0.00,257,Wunderground v.1.15,2015-03-26 15:52:00,
2015-03-26 11:02:00,34.0,22.7,29.92,NW,315,9.0,9.0,63,0.00,,,0.00,297,Wunderground v.1.15,2015-03-26 16:02:00,
2015-03-26 11:12:00,33.8,22.5,29.92,NNW,347,9.0,12.0,63,0.00,,,0.00,280,Wunderground v.1.15,2015-03-26 16:12:00,
2015-03-26 11:22:00,33.4,22.1,29.93,North,352,11.0,12.0,63,0.00,,,0.00,274,Wunderground v.1.15,2015-03-26 16:22:00,
2015-03-26 11:32:00,33.2,22.3,29.93,NNW,336,10.0,18.0,64,0.00,,,0.00,250,Wunderground v.1.15,2015-03-26 16:32:00,
2015-03-26 11:42:00,33.2,22.0,29.93,NNW,337,10.0,10.0,63,0.00,,,0.00,206,Wunderground v.1.15,2015-03-26 16:42:00,
2015-03-26 11:52:00,32.2,22.1,29.93,North,0,9.0,13.0,66,0.00,,,0.00,194,Wunderground v.1.15,2015-03-26 16:52:00,
2015-03-26 12:02:00,31.6,21.5,29.93,North,8,8.0,8.0,66,0.00,,,0.00,199,Wunderground v.1.15,2015-03-26 17:02:00,
2015-03-26 12:12:00,31.0,20.6,29.93,North,353,10.0,10.0,65,0.00,,,0.00,202,Wunderground v.1.15,2015-03-26 17:12:00,
2015-03-26 12:22:00,30.7,20.0,29.94,North,356,10.0,14.0,64,0.00,,,0.00,194,Wunderground v.1.15,2015-03-26 17:22:00,
2015-03-26 12:32:00,30.6,19.9,29.94,North,0,9.0,10.0,64,0.00,,,0.00,162,Wunderground v.1.15,2015-03-26 17:32:00,
2015-03-26 12:42:00,30.3,19.6,29.94,North,354,9.0,9.0,64,0.00,,,0.00,160,Wunderground v.1.15,2015-03-26 17:42:00,
2015-03-26 12:52:00,30.4,20.0,29.94,North,359,9.0,10.0,65,0.00,,,0.00,209,Wunderground v.1.15,2015-03-26 17:52:00,
2015-03-26 13:02:00,31.0,21.0,29.94,NNW,342,8.0,14.0,66,0.00,,,0.00,253,Wunderground v.1.15,2015-03-26 18:02:00,
2015-03-26 13:12:00,31.5,20.7,29.94,NE,42,9.0,9.0,64,0.00,,,0.00,322,Wunderground v.1.15,2015-03-26 18:12:00,
2015-03-26 13:22:00,32.2,21.4,29.94,North,359,9.0,11.0,64,0.00,,,0.00,357,Wunderground v.1.15,2015-03-26 18:22:00,
2015-03-26 13:32:00,32.2,20.2,29.94,North,353,11.0,11.0,61,0.00,,,0.00,378,Wunderground v.1.15,2015-03-26 18:32:00,
2015-03-26 13:42:00,32.7,20.7,29.94,North,353,10.0,16.0,61,0.00,,,0.00,452,Wunderground v.1.15,2015-03-26 18:42:00,
2015-03-26 13:52:00,32.2,19.9,29.94,North,0,11.0,11.0,60,0.00,,,0.00,366,Wunderground v.1.15,2015-03-26 18:52:00,
2015-03-26 14:02:00,32.2,19.9,29.94,NNW,336,10.0,10.0,60,0.00,,,0.00,294,Wunderground v.1.15,2015-03-26 19:02:00,
2015-03-26 14:12:00,31.8,19.9,29.94,NW,319,10.0,10.0,61,0.00,,,0.00,301,Wunderground v.1.15,2015-03-26 19:12:00,
2015-03-26 14:22:00,31.5,19.6,29.94,NNW,329,11.0,11.0,61,0.00,,,0.00,257,Wunderground v.1.15,2015-03-26 19:22:00,
2015-03-26 14:32:00,31.3,19.4,29.94,North,0,11.0,11.0,61,0.00,,,0.00,245,Wunderground v.1.15,2015-03-26 19:32:00,
2015-03-26 14:42:00,31.3,18.6,29.94,North,0,11.0,11.0,59,0.00,,,0.00,252,Wunderground v.1.15,2015-03-26 19:42:00,
2015-03-26 14:52:00,31.5,18.0,29.94,NNW,329,11.0,11.0,57,0.00,,,0.00,296,Wunderground v.1.15,2015-03-26 19:52:00,
2015-03-26 15:02:00,32.2,18.7,29.94,NNW,332,9.0,12.0,57,0.00,,,0.00,296,Wunderground v.1.15,2015-03-26 20:02:00,
2015-03-26 15:12:00,31.9,17.1,29.94,NW,320,10.0,13.0,54,0.00,,,0.00,250,Wunderground v.1.15,2015-03-26 20:12:00,
2015-03-26 15:22:00,31.8,17.5,29.94,NNE,28,10.0,10.0,55,0.00,,,0.00,252,Wunderground v.1.15,2015-03-26 20:22:00,
2015-03-26 15:32:00,31.5,16.7,29.94,North,356,11.0,11.0,54,0.00,,,0.00,238,Wunderground v.1.15,2015-03-26 20:32:00,
2015-03-26 15:42:00,31.3,17.0,29.95,North,359,10.0,10.0,55,0.00,,,0.00,245,Wunderground v.1.15,2015-03-26 20:42:00,
2015-03-26 15:52:00,31.2,16.5,29.96,NW,326,10.0,16.0,54,0.00,,,0.00,241,Wunderground v.1.15,2015-03-26 20:52:00,
2015-03-26 16:02:00,30.7,15.6,29.96,NNW,339,11.0,13.0,53,0.00,,,0.00,230,Wunderground v.1.15,2015-03-26 21:02:00,
2015-03-26 16:12:00,30.4,15.3,29.97,North,6,11.0,11.0,53,0.00,,,0.00,218,Wunderground v.1.15,2015-03-26 21:12:00,
2015-03-26 16:22:00,30.0,15.3,29.97,NNE,20,12.0,12.0,54,0.00,,,0.00,150,Wunderground v.1.15,2015-03-26 21:22:00,
2015-03-26 16:32:00,29.7,15.1,29.97,NNW,333,11.0,11.0,54,0.00,,,0.00,141,Wunderground v.1.15,2015-03-26 21:32:00,
2015-03-26 16:42:00,29.5,14.5,29.98,NNW,336,9.0,9.0,53,0.00,,,0.00,132,Wunderground v.1.15,2015-03-26 21:42:00,
2015-03-26 16:52:00,29.1,14.1,29.99,NNW,344,12.0,12.0,53,0.00,,,0.00,130,Wunderground v.1.15,2015-03-26 21:52:00,
2015-03-26 17:02:00,29.1,14.9,29.99,NW,313,11.0,16.0,55,0.00,,,0.00,127,Wunderground v.1.15,2015-03-26 22:02:00,
2015-03-26 17:12:00,28.8,14.6,30.00,NW,316,11.0,11.0,55,0.00,,,0.00,114,Wunderground v.1.15,2015-03-26 22:12:00,
2015-03-26 17:22:00,28.7,15.0,30.01,North,0,9.0,9.0,56,0.00,,,0.00,113,Wunderground v.1.15,2015-03-26 22:22:00,
2015-03-26 17:32:00,28.4,13.9,30.01,NNW,342,11.0,14.0,54,0.00,,,0.00,100,Wunderground v.1.15,2015-03-26 22:32:00,
2015-03-26 17:42:00,28.1,14.0,30.02,North,0,11.0,11.0,55,0.00,,,0.00,95,Wunderground v.1.15,2015-03-26 22:42:00,
2015-03-26 17:52:00,27.9,13.8,30.02,NNE,21,11.0,11.0,55,0.00,,,0.00,114,Wunderground v.1.15,2015-03-26 22:52:00,
2015-03-26 18:02:00,27.8,13.7,30.02,NNW,343,9.0,12.0,55,0.00,,,0.00,77,Wunderground v.1.15,2015-03-26 23:02:00,
2015-03-26 18:12:00,27.5,13.8,30.04,NNW,346,10.0,10.0,56,0.00,,,0.00,63,Wunderground v.1.15,2015-03-26 23:12:00,
2015-03-26 18:22:00,27.3,13.7,30.04,North,11,10.0,10.0,56,0.00,,,0.00,74,Wunderground v.1.15,2015-03-26 23:22:00,
2015-03-26 18:32:00,27.2,13.6,30.04,North,349,10.0,10.0,56,0.00,,,0.00,53,Wunderground v.1.15,2015-03-26 23:32:00,
2015-03-26 18:42:00,26.9,13.7,30.05,North,359,10.0,10.0,57,0.00,,,0.00,23,Wunderground v.1.15,2015-03-26 23:42:00,
2015-03-26 18:52:00,26.6,13.4,30.06,North,352,10.0,11.0,57,0.00,,,0.00,7,Wunderground v.1.15,2015-03-26 23:52:00,
2015-03-26 19:02:00,26.4,13.6,30.06,North,353,10.0,10.0,58,0.00,,,0.00,0,Wunderground v.1.15,2015-03-27 00:02:00,
2015-03-26 19:12:00,26.0,13.2,30.06,North,356,10.0,10.0,58,0.00,,,0.00,0,Wunderground v.1.15,2015-03-27 00:12:00,
2015-03-26 19:22:00,25.8,13.4,30.07,NNE,20,7.0,7.0,59,0.00,,,0.00,0,Wunderground v.1.15,2015-03-27 00:22:00,
2015-03-26 19:32:00,25.6,12.9,30.07,North,359,7.0,8.0,58,0.00,,,0.00,0,Wunderground v.1.15,2015-03-27 00:32:00,
2015-03-26 19:42:00,25.6,13.2,30.07,North,8,7.0,9.0,59,0.00,,,0.00,0,Wunderground v.1.15,2015-03-27 00:42:00,
2015-03-26 19:52:00,25.4,13.4,30.08,North,359,8.0,8.0,60,0.00,,,0.00,0,Wunderground v.1.15,2015-03-27 00:52:00,
2015-03-26 20:02:00,25.3,13.3,30.08,North,10,8.0,8.0,60,0.00,,,0.00,0,Wunderground v.1.15,2015-03-27 01:02:00,
2015-03-26 20:12:00,25.1,13.5,30.09,NNE,23,7.0,7.0,61,0.00,,,0.00,0,Wunderground v.1.15,2015-03-27 01:12:00,
2015-03-26 20:22:00,25.0,13.8,30.10,North,6,8.0,11.0,62,0.00,,,0.00,0,Wunderground v.1.15,2015-03-27 01:22:00,
2015-03-26 20:32:00,24.8,14.3,30.10,North,353,9.0,9.0,64,0.00,,,0.00,0,Wunderground v.1.15,2015-03-27 01:32:00,
2015-03-26 20:42:00,24.5,14.1,30.10,NNW,328,10.0,14.0,64,0.00,,,0.00,0,Wunderground v.1.15,2015-03-27 01:42:00,
2015-03-26 20:52:00,24.4,13.2,30.11,North,4,9.0,9.0,62,0.00,,,0.00,0,Wunderground v.1.15,2015-03-27 01:52:00,
2015-03-26 21:02:00,24.2,13.8,30.11,NE,41,7.0,10.0,64,0.00,,,0.00,0,Wunderground v.1.15,2015-03-27 02:02:00,
2015-03-26 21:12:00,23.9,13.8,30.11,North,350,9.0,10.0,65,0.00,,,0.00,0,Wunderground v.1.15,2015-03-27 02:12:00,
2015-03-26 21:22:00,23.5,13.8,30.12,North,0,9.0,10.0,66,0.00,,,0.00,0,Wunderground v.1.15,2015-03-27 02:22:00,
2015-03-26 21:32:00,23.2,13.2,30.12,North,352,9.0,9.0,65,0.00,,,0.00,0,Wunderground v.1.15,2015-03-27 02:32:00,
2015-03-26 21:42:00,22.9,13.2,30.12,North,0,10.0,10.0,66,0.00,,,0.00,0,Wunderground v.1.15,2015-03-27 02:42:00,
2015-03-26 21:52:00,22.5,12.1,30.13,North,359,10.0,12.0,64,0.00,,,0.00,0,Wunderground v.1.15,2015-03-27 02:52:00,